[[{"header":{"parameterUnit":"m.s-1","parameterCategory":1,"la1":30.2991,"la2":30.254,"lo1":-89.0895,"lo2":-89.0444,"dy":0.0017,"dx":0.0017,"nx":28,"ny":28,"refTime":"2025-06-15T09:00:00:Z","depth":0,"parameterNumber":2,"parameterNumberName":"U-component_of_WINDS"},"data":[0,0,0,0,0,0,0,0,0,0,0,0,0,0,0,0,0,0,0,0,0,0,0,0,0,0,0,0,0,0,0,0,0,0,0,0,0,0,0,0,0,0,0,0,0,0,0,0,0,0,0,0,0,0,0,0,0,0,-0.9618,-0.9617,0,-0.9595,-0.9594,-0.9594,-0.9558,-0.9557,-0.9557,-0.9556,-0.9533,-0.9533,-0.9533,0,0,0,0,0,0,0,0,0,0,0,0,0,-0.963,-0.963,-0.9618,-0.9617,-0.9617,-0.9595,-0.9594,-0.9594,-0.9558,-0.9557,-0.9557,-0.9556,-0.9533,-0.9533,-0.9533,0,0,0,0,0,0,0,0,0,0,0,0,0,-0.9618,-0.963,-0.9618,-0.9597,-0.9594,-0.9595,-0.9594,-0.9594,-0.9558,-0.9557,-0.9556,-0.9555,-0.9533,-0.9533,-0.9533,-0.9552,0,0,-0.9533,-0.9533,0,0,0,0,0,0,0,0,-0.9619,-0.9617,-0.96,-0.9598,-0.9596,-0.9578,-0.959,-0.958,-0.9559,-0.9572,-0.9556,-0.9555,-0.9549,-0.9547,-0.9545,-0.9551,-0.955,-0.9533,-0.9533,-0.9533,-0.9533,0,0,0,0,0,0,0,-0.962,-0.9618,-0.9609,-0.96,-0.9597,-0.9588,-0.9585,-0.9588,-0.9566,-0.9571,-0.9568,-0.9566,-0.9547,-0.9545,-0.9544,-0.955,-0.9533,-0.9533,-0.9533,-0.9533,-0.9569,-0.957,0,0,0,0,0,0,-0.9624,-0.9619,-0.9609,-0.9608,-0.9605,-0.9589,-0.9585,-0.9585,-0.9566,-0.9562,-0.9567,-0.9564,-0.9546,-0.9544,-0.9543,-0.9563,-0.9533,-0.9533,-0.9532,-0.9568,-0.9569,-0.957,0,0,0,0,0,0,-0.9624,-0.9623,-0.961,-0.9613,-0.9611,-0.9589,-0.9589,-0.9585,-0.9583,-0.9563,-0.9559,-0.9569,-0.9545,-0.9543,-0.955,-0.9562,-0.9533,-0.9532,-0.9567,-0.9568,-0.957,-0.9605,0,0,0,0,0,0,-0.9625,-0.9623,-0.9631,-0.9613,-0.9611,-0.9617,-0.959,-0.9585,-0.9583,-0.9579,-0.9564,-0.956,-0.9544,-0.955,-0.955,-0.9562,-0.9532,-0.9565,-0.9567,-0.9569,-0.9603,-0.9607,-0.9612,0,0,0,0,0,-0.9625,-0.9642,-0.9631,-0.963,-0.9619,-0.9618,-0.9617,-0.9598,-0.9584,-0.9591,-0.9578,-0.9561,-0.9561,-0.9551,-0.955,-0.9562,-0.9565,-0.9567,-0.9569,-0.9601,-0.9607,-0.9612,0,0,0,0,0,0,-0.9661,-0.9639,-0.9627,-0.9639,-0.9631,-0.9612,-0.962,-0.9605,-0.96,-0.9597,-0.9574,-0.9571,-0.958,-0.9572,-0.9561,-0.958,-0.956,-0.9562,-0.9584,-0.959,-0.9594,-0.9596,-0.9532,0,0,0,0,0,-0.9671,-0.9672,-0.9652,-0.9664,-0.9661,-0.9642,-0.964,-0.9627,-0.9617,-0.9614,-0.9601,-0.9593,-0.9591,-0.959,-0.9588,-0.9602,-0.9597,-0.961,-0.9614,-0.9618,-0.962,-0.9625,-0.963,-0.9577,-0.9577,-0.9577,0,0,-0.969,-0.9678,-0.968,-0.9671,-0.9663,-0.9665,-0.9639,-0.9642,-0.9642,-0.9614,-0.9619,-0.961,-0.9599,-0.9609,-0.9613,-0.9602,-0.9634,-0.9621,-0.9624,-0.9624,-0.9628,-0.9633,-0.9638,-0.9579,-0.9579,-0.9578,0,0,-0.9725,-0.9717,-0.9725,-0.9718,-0.9706,-0.9693,-0.9695,-0.9679,-0.9672,-0.9676,-0.9655,-0.9655,-0.9653,-0.9646,-0.9642,-0.9674,-0.9657,-0.9674,-0.9697,-0.9703,-0.9707,-0.9711,-0.9721,-0.9725,-0.9676,-0.9676,-0.9676,0,-0.975,-0.9752,-0.9732,-0.9735,-0.9732,-0.9707,-0.9715,-0.9709,-0.9697,-0.9695,-0.9684,-0.9679,-0.967,-0.9678,-0.9685,-0.9684,-0.9685,-0.9675,-0.9708,-0.9712,-0.9715,-0.9724,-0.9728,-0.9678,-0.9678,-0.9678,-0.9678,0,-0.9783,-0.9784,-0.9792,-0.9781,-0.9779,-0.9785,-0.9765,-0.9765,-0.9752,-0.974,-0.9745,-0.9733,-0.9727,-0.9728,-0.9715,-0.9733,-0.9727,-0.9712,-0.9692,-0.9722,-0.973,-0.9734,-0.9681,-0.968,-0.968,-0.9679,0,0,-0.9839,-0.9817,-0.982,-0.9814,-0.98,-0.98,-0.9805,-0.9799,-0.9799,-0.9792,-0.9794,-0.9793,-0.9779,-0.9774,-0.9761,-0.9766,-0.9791,-0.975,-0.975,-0.9757,-0.9808,-0.9818,-0.9823,-0.978,-0.9781,-0.9781,-0.9809,0,-0.987,-0.9877,-0.9859,-0.987,-0.9871,-0.9847,-0.9851,-0.9842,-0.9831,-0.9829,-0.9817,-0.9816,-0.9799,-0.9795,-0.98,-0.9787,-0.98,-0.9785,-0.9781,-0.9781,-0.9783,-0.9828,-0.9838,-0.9865,-0.9812,-0.9813,-0.9813,0,-0.9908,-0.9902,-0.9913,-0.9897,-0.9896,-0.99,-0.9893,-0.9892,-0.9881,-0.9873,-0.9868,-0.9852,-0.9855,-0.9836,-0.9839,-0.9829,-0.9827,-0.982,-0.9821,-0.9819,-0.9798,-0.9825,-0.9873,-0.9877,-0.9818,-0.9818,-0.9818,0,-0.9946,-0.9941,-0.9947,-0.9943,-0.9925,-0.9928,-0.992,-0.9909,-0.9906,-0.99,-0.9898,-0.9892,-0.9889,-0.9884,-0.9867,-0.9855,-0.9872,-0.9852,-0.9864,-0.9864,-0.9867,-0.9867,-0.9914,-0.9868,-0.9868,-0.9868,-0.9868,0,-0.9982,-0.9989,-0.9964,-0.9967,-0.9974,-0.9954,-0.9962,-0.9952,-0.9942,-0.9942,-0.9922,-0.9923,-0.99,-0.9899,-0.9885,-0.9889,-0.9888,-0.9881,-0.9877,-0.9882,-0.9882,-0.9879,-0.9876,-0.9869,-0.9869,-0.9869,-0.9869,0,-1.0026,-1.0009,-1.0013,-0.9996,-0.9991,-0.9997,-0.9982,-0.9984,-0.9972,-0.9973,-0.9972,-0.9953,-0.995,-0.9932,-0.9925,-0.9916,-0.9924,-0.9917,-0.9928,-0.9925,-0.9937,-0.9936,-0.9982,-0.9987,-0.994,-0.994,-0.9941,0,-1.0049,-1.0054,-1.0037,-1.0036,-1.0029,-1.0028,-1.0025,-1.0005,-1.0003,-0.9991,-0.9994,-0.9989,-0.9984,-0.9981,-0.9966,-0.996,-0.9952,-0.9969,-0.9951,-0.9955,-0.995,-0.995,-0.9949,-0.9972,-0.9973,-0.9973,-0.9974,0,-1.0091,-1.0083,-1.0079,-1.0073,-1.007,-1.0064,-1.0057,-1.0057,-1.0035,-1.0034,-1.003,-1.0026,-1.0019,-1.0014,-1.0006,-0.9998,-0.9982,-0.998,-0.9982,-0.9986,-0.9991,-0.9987,-0.9937,-0.9978,-0.9978,-0.9977,-0.9977,-0.9977,-1.0124,-1.0127,-1.0115,-1.0112,-1.0105,-1.0098,-1.0099,-1.0087,-1.0084,-1.0076,-1.0065,-1.0063,-1.0051,-1.0039,-1.0032,-1.0029,-1.002,-1.0024,-1.0024,-1.0025,-1.0027,-0.9993,-1.0028,-1.0028,-1.0028,-1.0028,-1.0027,0,-1.0165,-1.0156,-1.0153,-1.0143,-1.0141,-1.0127,-1.0118,-1.0116,-1.0115,-1.0106,-1.0101,-1.0097,-1.0092,-1.0077,-1.007,-1.0071,-1.0063,-1.007,-1.0069,-1.0067,-1.0036,-1.0035,-1.0076,-1.0076,-1.0076,-1.0076,-1.0076,-1.0076,-1.0185,-1.0189,-1.0179,-1.0179,-1.017,-1.0168,-1.0164,-1.0157,-1.015,-1.0146,-1.0142,-1.0132,-1.012,-1.0113,-1.0107,-1.0103,-1.0101,-1.0109,-1.0102,-1.0074,-1.0069,-1.0065,-1.0063,-1.0109,-1.0109,-1.0133,-1.0133,-1.0133]},{"header":{"parameterUnit":"m.s-1","parameterCategory":1,"la1":30.2991,"la2":30.254,"lo1":-89.0895,"lo2":-89.0444,"dy":0.0017,"dx":0.0017,"nx":28,"ny":28,"refTime":"2025-06-15T09:00:00:Z","depth":0,"parameterNumber":3,"parameterNumberName":"V-component_of_WINDS"},"data":[0,0,0,0,0,0,0,0,0,0,0,0,0,0,0,0,0,0,0,0,0,0,0,0,0,0,0,0,0,0,0,0,0,0,0,0,0,0,0,0,0,0,0,0,0,0,0,0,0,0,0,0,0,0,0,0,0,0,1.4445,1.4444,0,1.4396,1.4396,1.4395,1.4288,1.4285,1.4283,1.4281,1.4235,1.4236,1.4237,0,0,0,0,0,0,0,0,0,0,0,0,0,1.4448,1.4448,1.4445,1.4444,1.4443,1.4396,1.4396,1.4395,1.4288,1.4285,1.4283,1.428,1.4235,1.4236,1.4237,0,0,0,0,0,0,0,0,0,0,0,0,0,1.4428,1.4448,1.4445,1.4384,1.4378,1.4396,1.4396,1.4395,1.4289,1.4285,1.4282,1.4279,1.4235,1.4236,1.4237,1.4311,0,0,1.4241,1.4241,0,0,0,0,0,0,0,0,1.4429,1.4428,1.4394,1.4388,1.4382,1.4344,1.438,1.4367,1.4289,1.4323,1.4281,1.4277,1.4275,1.4272,1.4271,1.4309,1.4307,1.4241,1.4242,1.4242,1.4243,0,0,0,0,0,0,0,1.4431,1.4429,1.4425,1.4393,1.4386,1.4361,1.4354,1.4377,1.4318,1.432,1.4312,1.4307,1.4271,1.427,1.4269,1.4306,1.4241,1.4242,1.4243,1.4243,1.4404,1.4408,0,0,0,0,0,0,1.444,1.4431,1.4427,1.4424,1.4398,1.4363,1.4356,1.436,1.4317,1.4308,1.431,1.4302,1.4269,1.4267,1.4267,1.4352,1.4242,1.4244,1.4244,1.4401,1.4405,1.4409,0,0,0,0,0,0,1.4441,1.4441,1.4429,1.4425,1.4422,1.4367,1.4372,1.4361,1.4359,1.431,1.4299,1.432,1.4266,1.4265,1.4301,1.4349,1.4244,1.4245,1.4397,1.4402,1.4407,1.4522,0,0,0,0,0,0,1.4441,1.4442,1.4469,1.4427,1.4422,1.4464,1.4375,1.4362,1.4362,1.4351,1.4316,1.4307,1.4264,1.43,1.4302,1.4349,1.4246,1.4392,1.4399,1.4405,1.4514,1.4531,1.4545,0,0,0,0,0,1.4442,1.4504,1.4471,1.4471,1.4455,1.4466,1.4464,1.4412,1.4366,1.4393,1.4361,1.4309,1.4342,1.4304,1.4306,1.4354,1.4389,1.4397,1.4405,1.4507,1.4528,1.4545,0,0,0,0,0,0,1.4554,1.4497,1.446,1.451,1.4494,1.4448,1.4481,1.4435,1.4432,1.4423,1.4358,1.4352,1.4397,1.4378,1.4337,1.4424,1.4357,1.4366,1.4434,1.4454,1.4469,1.4474,1.4247,0,0,0,0,0,1.4584,1.4597,1.4547,1.4596,1.459,1.4537,1.454,1.4501,1.4482,1.4475,1.4446,1.4431,1.4438,1.4444,1.4448,1.451,1.4502,1.4544,1.4559,1.4572,1.4582,1.4614,1.4633,1.4435,1.4435,1.4435,0,0,1.4648,1.4618,1.4631,1.4618,1.4601,1.4617,1.4532,1.4553,1.4565,1.4478,1.4511,1.4489,1.4468,1.4518,1.4538,1.4504,1.4634,1.4582,1.4593,1.4595,1.4624,1.4643,1.466,1.444,1.4439,1.4438,0,0,1.4772,1.475,1.4789,1.4773,1.4748,1.4712,1.4722,1.4683,1.4665,1.4696,1.4632,1.4645,1.4659,1.4647,1.4642,1.4761,1.4714,1.4764,1.4847,1.488,1.4896,1.4909,1.4954,1.497,1.4773,1.4773,1.4774,0,1.4855,1.4875,1.4815,1.484,1.4837,1.4758,1.4798,1.4786,1.4764,1.4764,1.4725,1.4741,1.4721,1.4767,1.4797,1.4795,1.4805,1.4769,1.4898,1.4911,1.4923,1.4965,1.4981,1.478,1.4779,1.4778,1.4778,0,1.4979,1.4994,1.5029,1.5009,1.5009,1.5042,1.4988,1.4996,1.4956,1.4925,1.4958,1.4931,1.4929,1.4936,1.4898,1.4978,1.4957,1.4909,1.4842,1.4949,1.4988,1.5003,1.4789,1.4787,1.4785,1.4783,0,0,1.5175,1.512,1.5134,1.5124,1.509,1.5101,1.513,1.5126,1.5135,1.5122,1.5147,1.5159,1.5114,1.511,1.5069,1.5098,1.5196,1.5046,1.5044,1.5077,1.5284,1.5323,1.5342,1.5163,1.5166,1.5168,1.5287,0,1.5293,1.5339,1.5285,1.5343,1.5357,1.5282,1.5307,1.529,1.5262,1.527,1.5239,1.525,1.5189,1.5186,1.521,1.5179,1.5237,1.5169,1.5187,1.5188,1.5197,1.5362,1.5402,1.5516,1.5301,1.5304,1.5306,0,1.5437,1.543,1.549,1.5452,1.5456,1.548,1.5472,1.5481,1.546,1.5437,1.5432,1.5383,1.541,1.5342,1.538,1.5335,1.5338,1.5324,1.5327,1.5329,1.5256,1.5371,1.5551,1.557,1.5328,1.5326,1.5325,0,1.5577,1.5582,1.5619,1.5612,1.5568,1.5587,1.557,1.5545,1.5547,1.554,1.5541,1.5538,1.5538,1.5537,1.5489,1.5444,1.5534,1.5462,1.5518,1.5519,1.5542,1.5542,1.5729,1.5541,1.554,1.554,1.554,0,1.5716,1.5756,1.5681,1.5704,1.5746,1.5684,1.5728,1.5704,1.5682,1.57,1.5634,1.5652,1.5586,1.5598,1.556,1.5598,1.5598,1.5581,1.5572,1.5589,1.5592,1.5593,1.5585,1.5544,1.5543,1.5543,1.5542,0,1.5881,1.5832,1.5867,1.5822,1.5812,1.5845,1.5808,1.5828,1.5794,1.5817,1.5819,1.5767,1.5777,1.5728,1.573,1.5704,1.5763,1.5738,1.577,1.5763,1.5823,1.5819,1.6019,1.6043,1.5838,1.5839,1.5841,0,1.5975,1.6003,1.5961,1.5968,1.5954,1.5965,1.5965,1.5905,1.5909,1.5887,1.591,1.5914,1.5915,1.5935,1.5898,1.5899,1.5876,1.5946,1.5876,1.5893,1.588,1.588,1.5884,1.5961,1.5964,1.5966,1.5968,0,1.6147,1.6121,1.6123,1.6118,1.6121,1.6114,1.6103,1.6112,1.6047,1.6055,1.6064,1.6064,1.6065,1.6071,1.6065,1.6048,1.5999,1.5989,1.6003,1.6023,1.6041,1.6034,1.5812,1.5986,1.5984,1.5983,1.5982,1.5981,1.628,1.6303,1.6277,1.6282,1.6267,1.6258,1.6275,1.6243,1.6249,1.6244,1.6208,1.6224,1.6203,1.6189,1.6177,1.619,1.6157,1.6176,1.6181,1.6187,1.6199,1.6036,1.6188,1.6187,1.6187,1.6186,1.6186,0,1.6451,1.643,1.6435,1.6422,1.6427,1.6376,1.6361,1.6369,1.6384,1.6367,1.6369,1.638,1.6385,1.6348,1.6348,1.6366,1.6343,1.6368,1.6368,1.6366,1.6227,1.6217,1.6387,1.6387,1.6387,1.6387,1.6387,1.6387,1.6541,1.6576,1.6547,1.6575,1.6554,1.6568,1.6564,1.6556,1.6543,1.6557,1.6561,1.6536,1.6512,1.651,1.6513,1.6502,1.6507,1.654,1.6522,1.6394,1.6375,1.6356,1.6346,1.6541,1.6541,1.6659,1.6661,1.6662]}]]